Location: Beugnon
(47.6222°N, 3.7850°E)
Time: 00:59:51
(UTC+00:00)

STARLINK-1270 - Pass Details

Date: 09 April 2020
Orbit: 378 x 381 km, 53.0° (Epoch: 03 June)

Event Time Altitude Azimuth Distance (km) Brightness Sun altitude
Rises 19:50:36 0° 296° (WNW) 2,258 8.8 -14.0°
Reaches altitude 10° 19:52:40 10° 293° (WNW) 1,401 7.1 -14.3°
Maximum altitude 19:55:45 59° 213° (SSW) 442 3.1 -14.8°
Enters shadow 19:56:53 33° 147° (SSE) 656 3.5 -14.9°
